www.pogodaiklimat.ru

Погода и климат >> Архив погоды >> Россия >> Амурская область >> Береговой


ПОГОДА в Береговом

  • Прогноз погоды в Береговом
  • Монитор погоды в Береговом

АРХИВ ПОГОДЫ в Береговом

Время (UTC), дата Ветер
(напр.,м/с)
 
Видим.   Явления Облачность Т
(С)
Тd
(С)
f
(%)
Тe
(С)
Тes
(С)
Комфортность P
(гПа)
Po
(гПа)
Тmin
(С)
Tmax
(С)
R
(мм)
R24
(мм)
S
(см)
03 10.09 В 2 50 км 1/1 600 м
[Cu hum]
+13.0 +2.8 50 +13 +20 1016.8 975.1
06 10.09 ЮВ 3 50 км 1/1 600 м
[Cu hum]
+14.0 +1.3 42 +13 +17 1016.1 974.6
09 10.09 Ю 1 50 км ясно +12.9 +2.8 50 +13 +14 1016.2 974.6
12 10.09 штиль 0 50 км 1/0
[Ac trans]
+6.8 +5.4 91 +6 +6 1017.9 975.3 +14.8
15 10.09 штиль 0 50 км 3/0
[Ac trans]
+4.3 +3.9 97 +3 +3 1018.5 975.5
18 10.09 штиль 0 50 км 9/0
[Ac trans]
+7.0 +5.2 88 +6 +6 1018.2 975.6
21 10.09 штиль 0 50 км 9/3 600 м
[Sc Ac trans]
+7.4 +6.1 91 +6 +6 1018.4 975.9
00 11.09 ЮВ 2 50 км ясно +12.4 +7.7 73 +12 +15 1017.8 976.0 +3.7
03 11.09 ЮВ 3 50 км 3/3 600 м
[Sc]
+13.7 +8.3 70 +13 +17 1017.0 975.5
06 11.09 ЮВ 3 50 км 8/3 600 м
[Sc Ci fib]
+15.9 +8.5 61 +16 +18 1014.7 973.6
09 11.09 штиль 0 50 км 10/1 600 м
[Sc Ci fib]
+15.6 +9.0 65 +15 +16 1013.9 972.8
12 11.09 ЮЗ 1 50 км 10/3 600 м
[Sc Ac trans Ci fib]
+11.8 +7.9 77 +12 +12 1014.7 973.1 +16.9
15 11.09 ЮВ 1 50 км 10/8 600 м
[Sc Ci fib]
+11.6 +7.7 77 +12 +12 1015.0 973.2
21 11.09 штиль 0 50 км 4/1 600 м
[Sc Ci fib]
+7.0 +6.6 97 +6 +6 1014.5 972.1
00 12.09 ЮВ 2 50 км 3/0
[Ci fib]
+13.6 +6.8 63 +13 +16 1012.5 971.1 +6.8
06 12.09 ЮВ 4 50 км 4/3 600 м
[Sc Ci fib]
+20.0 +10.7 55 +22 +24 комфорт 1007.0 966.7
09 12.09 ЮВ 2 50 км 9/3 600 м
[Sc Ci fib]
+20.0 +10.2 53 +22 +22 комфорт 1004.7 964.5
12 12.09 Ю 4 50 км 9/6 600 м
[Sc Ac trans Ci fib]
+18.6 +10.3 58 +19 +19 1002.7 962.5 +22.0
15 12.09 Ю 4-11
{12}
50 км 10/8 600 м
[Sc Ci fib]
+18.9 +8.6 51 +19 +19 1000.4 960.3
18 12.09 Ю 4
{12}
50 км 9/5 600 м
[Sc Ci fib]
+17.0 +7.5 54 +17 +17 998.5 958.2
21 12.09 ЮВ 4 50 км 10/3 600 м
[Sc Ac trans Ci fib]
+15.2 +9.6 69 +14 +14 997.1 956.6
00 13.09 ЮВ 3
{11}
10 км слаб. ливневой дождь 10/10 600 м
[Cb cap]
+12.9 +10.4 85 +11 +11 995.0 954.3 +12.9 0.0
03 13.09 ЮВ 2 10 км слаб. ливневой дождь 10/10 600 м
[Cb cap]
+12.6 +10.9 89 +12 +12 993.3 952.6 +12.3
06 13.09 З 2
{10}
10 км слаб. ливневой дождь 10/10 600 м
[Cb cap]
+8.4 +7.6 95 +6 +6 994.4 953.0
09 13.09 З 3-12
{13}
50 км в посл. час ливневой дождь 10/10 600 м
[Cb cap]
+7.4 +4.9 84 +5 +5 998.1 956.4
12 13.09 З 3-12
{14}
50 км {ливн. осадки} 9/0
[Ac trans Ci fib]
+7.2 +1.3 66 +5 +5 1002.3 960.4 +13.8 3
15 13.09 З 3
{12}
50 км 4/0
[Ci fib]
+6.4 -0.4 62 +4 +4 1004.9 962.7
18 13.09 З 2
{12}
50 км ясно +5.2 -2.6 57 +3 +3 1007.3 964.8
21 13.09 З 2 50 км ясно +3.2 -2.2 68 +1 +1 1009.8 966.9
00 14.09 З 2 50 км ясно +9.1 -2.8 43 +8 +11 1010.1 968.1 +2.7
03 14.09 С 1 50 км ясно +13.5 -4.2 29 +14 +23 1008.6 967.3
06 14.09 ЮВ 3 50 км 4/0
[Ac trans]
+11.2 -0.1 46 +10 +13 1007.5 966.0
09 14.09 штиль 0 50 км 8/8 600 м
[Sc]
+10.6 +4.6 66 +10 +10 1007.3 965.6
12 14.09 штиль 0 50 км 1/1 600 м
[Sc]
+7.2 +3.7 78 +6 +6 1007.5 965.3 +13.7
15 14.09 Ю 1 50 км 9/0
[Ac trans Ci fib]
+9.4 +4.0 69 +9 +9 1006.0 964.3
18 14.09 ЮВ 1 50 км 9/0
[Ci fib]
+6.3 +3.5 82 +5 +5 1004.4 962.3
21 14.09 штиль 0 50 км 9/1 600 м
[Sc Ci fib]
+4.4 +2.6 88 +3 +3 1003.4 961.0
00 15.09 ЮВ 4 50 км 10/4 600 м
[Sc Ac trans Ci fib]
+10.8 +5.2 68 +9 +9 1000.1 958.8 +3.5
03 15.09 ЮВ 3 50 км {ливн. осадки} 10/6 600 м
[Cb cap Ci fib]
+11.6 +6.9 73 +10 +12 998.2 957.2
06 15.09 ЮЗ 1 50 км {ливн. осадки} 9/5 600 м
[Cb cap Ac trans]
+12.9 +6.5 65 +13 +15 995.5 954.7
09 15.09 З 2 10 км слаб. ливневой дождь 10/10 600 м
[Cb cap]
+6.2 +4.6 89 +4 +4 996.7 954.9
12 15.09 ЮЗ 1
{11}
10 км слаб. ливневой снег 10/10 600 м
[Cb cap]
+1.3 +0.9 97 -1 -1 998.9 956.2 +13.1 4
00 16.09 З 1 50 км {ливн. осадки} 10/3 600 м
[Sc Ci fib]
+1.5 +0.1 90 -0 +2 1004.2 961.4 0.0 4 1
12 16.09 штиль 0 50 км 9/4 600 м
[Sc Ac trans]
+0.8 -0.7 90 -0 -0 1011.9 968.6 +5.7 0.0
00 17.09 З 1 50 км 9/4 600 м
[Sc Ac trans]
+1.3 -2.5 76 -0 +1 1012.7 969.5 -2.4

 

Местоположение метеостанции Береговой (Амурская область, Россия): широта 54.38 долгота 127.40 высота над уровнем моря 353 м.

В архиве по умолчанию представлена погода в Береговом за последнюю неделю. Архивные данные за месяц целиком и за предыдущие месяцы, начиная с января 2011 года, Вы можете получить, выбрав интересующий диапазон дат из раскрывающегося списка и нажав кнопку "Ввод!".


*Определитесь, кто Вы:
робот инопланетянин человек

Внимание! Время в таблицах - всемирное. Для получения местного времени необходимо прибавить поправку, которая равна 9 ч.

Смотрите также архив погоды в соседних городах и на ближайших метеорологических станциях:

Погода в Зее (Амурская область, Россия) (73 км)
Погода в Бомнаке (Амурская область, Россия) (98 км)
Погода в Магдагачи (Амурская область, Россия) (147 км)
Погода в Тыгде (Амурская область, Россия) (160 км)
Погода в Октябрьский Прииск (Амурская область, Россия) (173 км)
Погода в Локшаке (Амурская область, Россия) (197 км)
Погода в Тынде (Амурская область, Россия) (200 км)
Погода в Черняево (Амурская область, Россия) (201 км)
Погода в Дугде (Амурская область, Россия) (205 км)
Погода в Сковородино (Амурская область, Россия) (232 км)

Пояснения к столбцам:

Ветер - указаны скорость ветра в м/с - средняя за 10 мин, порывы в срок и между сроками (в фигурных скобках) и направление, откуда дует ветер: С - северный, СВ - северо-восточный, В - восточный, ЮВ - юго-восточный, Ю - южный, ЮЗ - юго-западный, З - западный, СЗ - северо-западный.
Видимость - горизонтальная дальность видимости в метрах или километрах. При видимости от 1 до 10 км при отсутствии осадков обычно наблюдается дымка, при ухудшении видимости до 1 км и менее - туман. В сухую погоду видимость может ухудшаться дымом, пылью или мглою.
Явления - указаны атмосферные явления, наблюдавшиеся в срок или в последний час перед сроком; фигурными скобками обозначены явления, наблюдавшиеся между сроками (за 1-3 часа до срока); квадратными скобками обозначены град или гололедные отложения с указанием их диаметра в мм.
Облачность - указаны через наклонную черту общая и нижняя облачность в баллах и высота нижней границы облаков в метрах; квадратными скобками обозначены формы облаков: Ci - перистые, Cs - перисто-слоистые, Cc - перисто-кучевые, Ac - высококучевые, As - высокослоистые, Sc - слоисто-кучевые, Ns - слоисто-дождевые, Cu - кучевые, Cb - кучево-дождевые. Подробнее классификацию облаков см. в Атласе облаков (PDF).
T - Температура воздуха - температура, измеренная на высоте 2 м над землей.
Td - Температура точки росы - температура, при понижении до которой содержащийся в воздухе водяной пар достигнет насыщения.
f - Относительная влажность воздуха - влажноcть воздуха, измеренная на высоте 2 м над землей.
Te - Эффективная температура - температура, которую ощущает одетый по сезону человек в тени. Характеристика душности погоды. При расчете учитывается влияние влажности воздуха и скорости ветра на теплоощущения человека.
Tes - Эффективная температура на солнце - температура, которую ощущает человек, с поправкой на солнечный нагрев. Характеристика знойности погоды. Зависит от высоты солнца над горизонтом, облачности и скорости ветра. Ночью, в пасмурную погоду, а также при ветре 12 м/с и более поправка равна нулю.
P - Атмосферное давление - приведенное к уровню моря атмосферное давление.
Po - Атмосферное давление - измеренное на уровне метеостанции атмосферное давление.
Tmin - Минимальная температура - минимум температуры воздуха на высоте 2 м над землей.
Tmax - Максимальная температура - максимум температуры воздуха на высоте 2 м над землей.
R - Количество осадков - Количество выпавших осадков за период времени, мм. При наведении курсора мыши на число - период времени, за который выпало указанное количество осадков.
R24 - Количество осадков - Количество выпавших осадков за 24 часа, мм.
S - Снежный покров - Высота снежного покрова, см. При наведении курсора мыши на число - состояние снежного покрова и степень покрытия местности в баллах.